Tracking 28790 objects as of 19-Apr-2024
HD Live streaming from Space Station
objects crossing your sky now

COSMOS 2090

Track COSMOS 2090 now!
10-day predictions
COSMOS 2090 is classified as:


NORAD ID: 20735
Int'l Code: 1990-070A
Perigee: 1,396.1 km
Apogee: 1,420.2 km
Inclination: 82.6 °
Period: 113.8 minutes
Semi major axis: 7779 km
RCS: 1.115 m2 (large)
Launch date: August 8, 1990
Source: Commonwealth of Independent States (former USSR) (CIS)
Launch site: PLESETSK MISSILE AND SPACE COMPLEX (PKMTR)
Your satellite tracking list
Your tracking list is empty




NASA's NSSDC Master Catalog

Two Line Element Set (TLE):
1 20735U 90070A   24109.38791536  .00000043  00000-0  17041-3 0  9994
2 20735  82.5669  59.7966 0015486  64.8468  52.3548 12.65329426556044
Source of the keplerian elements: AFSPC